TimeCST,TemperatureF,Dew PointF,Humidity,Sea Level PressureIn,VisibilityMPH,Wind Direction,Wind SpeedMPH,Gust SpeedMPH,PrecipitationIn,Events,Conditions,WindDirDegrees,DateUTC
12:15 AM,72.9,69.3,88,29.83,7.0,SSE,16.1,21.9,N/A,,Clear,160,2012-12-19 06:15:00
12:35 AM,72.9,69.3,88,29.83,7.0,SSE,15.0,21.9,N/A,,Scattered Clouds,160,2012-12-19 06:35:00
12:55 AM,72.9,69.3,88,29.82,7.0,SSE,16.1,-,N/A,,Scattered Clouds,160,2012-12-19 06:55:00
1:15 AM,72.9,69.3,88,29.82,7.0,SSE,13.8,-,N/A,,Mostly Cloudy,160,2012-12-19 07:15:00
1:35 AM,72.7,69.3,89,29.81,7.0,SSE,12.7,-,N/A,,Mostly Cloudy,160,2012-12-19 07:35:00
1:55 AM,73.2,69.4,88,29.81,7.0,SSE,11.5,-,N/A,,Overcast,150,2012-12-19 07:55:00
2:15 AM,73.0,69.4,88,29.81,7.0,SSE,12.7,-,N/A,,Overcast,150,2012-12-19 08:15:00
2:35 AM,72.9,69.3,88,29.80,7.0,SSE,13.8,17.3,N/A,,Mostly Cloudy,150,2012-12-19 08:35:00
2:55 AM,72.7,69.3,89,29.79,7.0,SSE,12.7,-,N/A,,Scattered Clouds,150,2012-12-19 08:55:00
3:15 AM,72.5,69.1,89,29.79,7.0,SSE,11.5,-,N/A,,Scattered Clouds,160,2012-12-19 09:15:00
3:35 AM,72.5,69.3,90,29.79,7.0,SSE,11.5,-,N/A,,Mostly Cloudy,160,2012-12-19 09:35:00
3:55 AM,73.4,69.8,88,29.79,7.0,SSE,11.5,-,N/A,,Overcast,160,2012-12-19 09:55:00
4:15 AM,73.4,69.8,88,29.79,7.0,SSE,13.8,-,N/A,,Overcast,150,2012-12-19 10:15:00
4:35 AM,73.4,69.8,88,29.78,7.0,SSE,12.7,-,N/A,,Mostly Cloudy,160,2012-12-19 10:35:00
4:55 AM,73.8,70.0,88,29.78,7.0,SSE,15.0,-,N/A,,Mostly Cloudy,150,2012-12-19 10:55:00
5:15 AM,73.4,69.8,88,29.77,7.0,SSE,13.8,-,N/A,,Mostly Cloudy,150,2012-12-19 11:15:00
5:35 AM,73.0,69.8,90,29.77,7.0,SSE,13.8,-,N/A,,Scattered Clouds,150,2012-12-19 11:35:00
5:55 AM,72.9,69.8,90,29.77,7.0,SSE,15.0,-,N/A,,Scattered Clouds,150,2012-12-19 11:55:00
6:15 AM,72.9,69.8,90,29.77,7.0,SSE,16.1,20.7,N/A,,Scattered Clouds,160,2012-12-19 12:15:00
6:35 AM,73.0,69.8,90,29.77,7.0,SSE,15.0,-,N/A,,Scattered Clouds,160,2012-12-19 12:35:00
6:55 AM,72.9,69.8,90,29.78,7.0,SSE,15.0,-,N/A,,Scattered Clouds,150,2012-12-19 12:55:00
7:15 AM,73.4,70.0,89,29.78,5.0,SSE,15.0,-,N/A,,Scattered Clouds,150,2012-12-19 13:15:00
7:35 AM,73.8,70.2,88,29.78,5.0,SSE,16.1,-,N/A,,Mostly Cloudy,160,2012-12-19 13:35:00
7:55 AM,73.9,70.3,88,29.79,5.0,SSE,16.1,21.9,N/A,,Scattered Clouds,160,2012-12-19 13:55:00
8:15 AM,74.7,70.7,87,29.79,5.0,SSE,16.1,19.6,N/A,,Mostly Cloudy,160,2012-12-19 14:15:00
8:35 AM,75.6,70.9,85,29.81,7.0,SSE,18.4,21.9,N/A,,Overcast,160,2012-12-19 14:35:00
8:55 AM,76.3,70.5,82,29.80,7.0,South,23.0,26.5,N/A,,Overcast,170,2012-12-19 14:55:00
9:15 AM,77.4,70.7,80,29.81,10.0,SSE,19.6,27.6,N/A,,Overcast,160,2012-12-19 15:15:00
9:35 AM,78.4,70.2,76,29.81,10.0,South,23.0,28.8,N/A,,Overcast,170,2012-12-19 15:35:00
9:55 AM,78.8,69.8,74,29.81,10.0,South,26.5,32.2,N/A,,Overcast,170,2012-12-19 15:55:00
10:15 AM,79.3,69.8,72,29.82,10.0,SSE,25.3,32.2,N/A,,Overcast,160,2012-12-19 16:15:00
10:35 AM,80.2,69.6,70,29.81,10.0,SSE,24.2,28.8,N/A,,Overcast,160,2012-12-19 16:35:00
10:55 AM,80.8,69.8,69,29.80,10.0,South,20.7,-,N/A,,Overcast,170,2012-12-19 16:55:00
11:15 AM,80.8,69.4,68,29.79,10.0,South,24.2,-,N/A,,Overcast,170,2012-12-19 17:15:00
11:55 AM,82.2,69.4,65,29.77,10.0,SSE,18.4,-,N/A,,Overcast,160,2012-12-19 17:55:00
12:15 PM,82.8,68.9,63,29.76,10.0,SSE,17.3,25.3,N/A,,Overcast,160,2012-12-19 18:15:00
12:35 PM,83.5,68.5,61,29.74,10.0,South,21.9,-,N/A,,Overcast,170,2012-12-19 18:35:00
12:55 PM,83.5,69.4,62,29.73,10.0,SSE,19.6,24.2,N/A,,Overcast,150,2012-12-19 18:55:00
1:15 PM,84.2,69.8,62,29.71,10.0,SSE,20.7,25.3,N/A,,Mostly Cloudy,150,2012-12-19 19:15:00
1:35 PM,84.4,69.1,60,29.69,10.0,SSE,19.6,27.6,N/A,,Mostly Cloudy,150,2012-12-19 19:35:00
1:55 PM,85.5,69.1,58,29.69,10.0,SSE,20.7,27.6,N/A,,Mostly Cloudy,150,2012-12-19 19:55:00
2:15 PM,84.6,69.1,60,29.69,10.0,SSE,18.4,21.9,N/A,,Mostly Cloudy,150,2012-12-19 20:15:00
2:35 PM,86.4,66.6,51,29.68,10.0,South,20.7,26.5,N/A,,Mostly Cloudy,170,2012-12-19 20:35:00
2:55 PM,84.2,69.1,60,29.68,10.0,SSE,19.6,24.2,N/A,,Scattered Clouds,150,2012-12-19 20:55:00
3:15 PM,83.5,68.9,61,29.68,10.0,SSE,19.6,25.3,N/A,,Scattered Clouds,150,2012-12-19 21:15:00
3:35 PM,83.8,68.9,61,29.67,10.0,SSE,20.7,-,N/A,,Scattered Clouds,150,2012-12-19 21:35:00
3:55 PM,83.8,68.9,61,29.68,7.0,SSE,20.7,25.3,N/A,,Scattered Clouds,150,2012-12-19 21:55:00
4:15 PM,82.2,69.3,65,29.67,10.0,SSE,18.4,25.3,N/A,,Scattered Clouds,150,2012-12-19 22:15:00
4:55 PM,81.0,69.6,68,29.67,10.0,SSE,21.9,25.3,N/A,,Clear,150,2012-12-19 22:55:00
5:15 PM,80.1,69.4,70,29.68,10.0,SSE,18.4,-,N/A,,Clear,150,2012-12-19 23:15:00
5:35 PM,79.0,69.3,72,29.68,10.0,SSE,20.7,-,N/A,,Clear,150,2012-12-19 23:35:00
5:55 PM,78.1,69.3,74,29.69,10.0,SSE,16.1,23.0,N/A,,Clear,150,2012-12-19 23:55:00
6:15 PM,77.4,69.4,76,29.69,10.0,SSE,17.3,24.2,N/A,,Clear,150,2012-12-20 00:15:00
6:35 PM,76.5,69.4,79,29.70,10.0,SSE,16.1,23.0,N/A,,Clear,150,2012-12-20 00:35:00
6:55 PM,76.1,69.8,81,29.70,10.0,SSE,15.0,21.9,N/A,,Clear,150,2012-12-20 00:55:00
7:15 PM,75.7,69.8,82,29.70,10.0,SSE,15.0,-,N/A,,Clear,150,2012-12-20 01:15:00
7:35 PM,75.6,69.8,82,29.71,10.0,SSE,16.1,23.0,N/A,,Clear,150,2012-12-20 01:35:00
7:55 PM,75.2,69.4,82,29.72,10.0,SSE,13.8,-,N/A,,Clear,160,2012-12-20 01:55:00
8:15 PM,75.0,69.4,83,29.73,10.0,SSE,13.8,-,N/A,,Clear,160,2012-12-20 02:15:00
8:35 PM,74.5,69.3,84,29.73,10.0,SSE,11.5,-,N/A,,Clear,150,2012-12-20 02:35:00
8:55 PM,74.3,69.1,84,29.74,10.0,SSE,12.7,-,N/A,,Clear,160,2012-12-20 02:55:00
9:15 PM,73.8,68.9,85,29.75,10.0,South,11.5,-,N/A,,Clear,170,2012-12-20 03:15:00
9:35 PM,73.4,68.5,85,29.76,10.0,South,10.4,-,N/A,,Clear,170,2012-12-20 03:35:00
9:55 PM,72.9,68.4,86,29.76,10.0,South,9.2,-,N/A,,Clear,170,2012-12-20 03:55:00
10:15 PM,72.5,68.0,86,29.77,10.0,South,9.2,-,N/A,,Clear,180,2012-12-20 04:15:00
10:35 PM,72.0,68.0,87,29.77,10.0,South,10.4,-,N/A,,Clear,180,2012-12-20 04:35:00
10:55 PM,71.6,67.5,87,29.78,10.0,South,9.2,-,N/A,,Clear,180,2012-12-20 04:55:00
11:15 PM,71.2,67.3,87,29.78,7.0,South,8.1,-,N/A,,Scattered Clouds,170,2012-12-20 05:15:00
11:35 PM,70.7,67.1,88,29.78,7.0,South,6.9,-,N/A,,Mostly Cloudy,170,2012-12-20 05:35:00
11:55 PM,70.7,67.3,89,29.79,7.0,South,5.8,-,N/A,,Overcast,180,2012-12-20 05:55:00